Location: Home
(42.5358°N, 72.7383°W)
Time: 12:03:53
(UTC-05:00)

SR - Visible Passes

Search period start: 06 December 2021 00:00
Search period end: 16 December 2021 00:00
Orbit: 583 x 871 km, 66.7° (Epoch: 05 December)

Date Brightness Start Highest point End Pass type
(mag) Time Alt. Az. Time Alt. Az. Time Alt. Az.
07 Dec ? 05:46:18 10° N 05:48:51 15° NE 05:51:27 10° E visible
08 Dec ? 06:37:11 10° NNW 06:41:26 51° NE 06:45:54 10° SE visible
09 Dec ? 05:47:45 10° N 05:51:24 26° NE 05:55:12 10° ESE visible
10 Dec ? 04:58:48 10° N 05:01:11 14° NE 05:03:37 10° ENE visible
11 Dec ? 05:49:34 10° NNW 05:53:48 47° NE 05:58:14 10° SE visible
12 Dec ? 05:01:17 15° N 05:03:45 24° NE 05:07:28 10° ESE visible
13 Dec ? 04:13:03 13° NE 04:13:30 13° NE 04:15:44 10° ENE visible
13 Dec ? 05:52:28 15° NNW 05:56:04 88° WSW 06:00:44 10° SSE visible
14 Dec ? 05:04:18 28° N 05:06:09 44° NE 05:10:35 10° SE visible
15 Dec ? 04:16:10 23° NE 04:16:10 23° NE 04:19:42 10° E visible
15 Dec ? 05:55:35 21° NW 05:58:14 43° WSW 06:02:41 10° S visible
